www.pogodaiklimat.ru

Погода и климат >> Архив погоды >> Япония >> Hiroshima


АРХИВ ПОГОДЫ в Hiroshima

Время (UTC), дата Ветер
(напр.,м/с)
 
Видим.   Явления Облачность Т
(С)
Тd
(С)
f
(%)
Тe
(С)
Тes
(С)
Комфортность P
(гПа)
Po
(гПа)
Тmin
(С)
Tmax
(С)
R
(мм)
R24
(мм)
S
(см)
01 16.06 С 4 н/о н/о +22.2 +13.3 57 +25 +25 комфорт 1012.3 1006.1
02 16.06 С 3 н/о н/о +23.2 +13.7 55 +27 +27 душно 1011.9 1005.7
03 16.06 СЗ 2 30 км 1/1
[Cu hum]
+24.1 +12.4 48 +26 +45 жарко 1011.7 1005.5
04 16.06 ЮЗ 3 н/о н/о +25.8 +14.3 49 +28 +28 жарко 1011.2 1005.0
05 16.06 Ю 3 н/о н/о +25.2 +13.4 48 +27 +27 жарко 1010.9 1004.7
06 16.06 Ю 2 30 км 1/1
[Cu hum Ac cast]
+26.3 +13.8 46 +28 +42 жарко 1010.4 1004.3
07 16.06 ЮЗ 5 н/о н/о +24.5 +13.4 50 +27 +27 жарко 1010.4 1004.2
08 16.06 ЮЗ 4 н/о н/о +24.6 +13.5 50 +27 +27 жарко 1009.9 1003.7
09 16.06 ЮЗ 5 25 км 1/1
[Cu hum]
+23.7 +13.6 53 +26 +27 жарко 1010.3 1004.1
10 16.06 ЮЗ 4 н/о н/о +22.9 +13.7 56 +26 +26 жарко 1010.9 1004.7
11 16.06 ЮЗ 1 н/о н/о +23.0 +13.5 55 +26 +26 жарко 1011.5 1005.3
12 16.06 СЗ 1 25 км 1/1
[Cu hum]
+23.0 +13.5 55 +26 +26 жарко 1012.1 1005.9 +27.7
13 16.06 С 2 н/о н/о +22.6 +14.2 59 +26 +26 жарко 1012.4 1006.2
14 16.06 С 3 н/о н/о +21.5 +14.9 66 +25 +25 комфорт 1012.4 1006.1
15 16.06 С 3 н/о н/о +21.2 +14.4 65 +24 +24 комфорт 1011.9 1005.6
16 16.06 С 5 н/о н/о +20.2 +14.6 70 +22 +22 комфорт 1012.0 1005.7
17 16.06 С 3 н/о н/о +19.6 +14.2 71 +22 +22 комфорт 1012.1 1005.8
18 16.06 С 4 25 км ясно +19.3 +13.9 71 +21 +21 комфорт 1012.3 1006.0
19 16.06 С 5 н/о н/о +19.0 +13.4 70 +20 +20 прохладно 1012.6 1006.3
20 16.06 С 4 н/о н/о +18.5 +12.9 70 +19 +19 прохладно 1012.8 1006.5
21 16.06 С 3 25 км 6/0
[Ci fib]
+18.2 +13.3 73 +19 +19 прохладно 1013.2 1006.9
22 16.06 С 4 н/о н/о +18.9 +13.1 69 +20 +20 холодно 1013.0 1006.7
23 16.06 С 3 н/о н/о +20.8 +12.5 59 +23 +23 комфорт 1013.0 1006.7
00 17.06 С 2 30 км 9/0
[Ci sp]
+23.2 +12.2 50 +26 +36 жарко 1012.4 1006.2 +18.1
01 17.06 ЮЗ 3 н/о н/о +24.4 +12.7 48 +26 +26 жарко 1012.4 1006.2
02 17.06 Ю 5 н/о н/о +24.0 +12.3 48 +26 +26 жарко 1012.6 1006.4
03 17.06 ЮЗ 2 35 км 8/1
[Cu hum Ci sp]
+25.5 +12.7 45 +27 +43 жарко 1012.2 1006.0
04 17.06 З 2 н/о н/о +27.4 +12.6 40 +29 +29 жарко 1011.1 1005.0
05 17.06 ЮЗ 3 н/о н/о +27.9 +12.3 38 +29 +29 жарко 1010.5 1004.4
06 17.06 ЮЗ 3 35 км 9/0
[Ci sp]
+27.9 +11.9 37 +29 +38 жарко 1010.0 1003.9
07 17.06 ЮЗ 2 н/о н/о +28.5 +13.2 39 +30 +30 жарко 1009.1 1003.0
08 17.06 Ю 4 н/о н/о +26.1 +13.6 46 +28 +28 жарко 1008.6 1002.5
09 17.06 ЮЗ 3 30 км 9/3
[Cu hum Ac As Ci sp]
+25.4 +15.1 53 +28 +29 жарко 1009.0 1002.9
10 17.06 ЮЗ 3 н/о н/о +25.0 +15.1 54 +28 +28 жарко 1009.6 1003.4
11 17.06 СЗ 1 н/о н/о +25.2 +15.3 54 +28 +28 жарко 1009.4 1003.2
12 17.06 СВ 2 30 км 9/0
[Ac As Ci fib]
+25.3 +15.3 54 +28 +28 жарко 1009.4 1003.2 +29.0
13 17.06 СВ 4 н/о н/о +24.9 +15.3 55 +28 +28 жарко 1009.4 1003.2
14 17.06 СВ 3 н/о н/о +24.2 +15.7 59 +27 +27 жарко 1009.3 1003.1
15 17.06 С 4 н/о н/о +23.3 +15.9 63 +28 +28 душно 1009.1 1002.9
16 17.06 СВ 3 н/о н/о +23.4 +15.5 61 +28 +28 душно 1008.9 1002.7
17 17.06 С 3 н/о н/о +22.9 +15.5 63 +27 +27 душно 1008.6 1002.4
18 17.06 СВ 4 30 км слабый ливневой дождь 9/6
[Cu med, cong Ac As]
+22.1 +15.0 64 +26 +26 душно 1008.5 1002.3 0.0
19 17.06 СВ 5 н/о н/о +22.1 +14.7 63 +25 +25 комфорт 1008.5 1002.3
20 17.06 С 4 н/о н/о +21.9 +14.8 64 +25 +25 комфорт 1009.0 1002.8
21 17.06 С 2 20 км в посл. час ливневой дождь 9/8
[Cu med, cong Ac As]
+21.6 +15.5 68 +25 +25 комфорт 1009.0 1002.8
22 17.06 С 4 н/о н/о +22.2 +15.1 64 +26 +26 душно 1008.9 1002.7
23 17.06 С 4 н/о н/о +22.8 +15.4 63 +27 +27 душно 1009.0 1002.8
00 18.06 С 4 20 км слабый ливневой дождь 9/8
[Cu med, cong Ac As]
+23.1 +15.7 63 +27 +29 душно 1009.0 1002.8 +21.4 0.0
01 18.06 С 2 н/о н/о +23.7 +17.5 68 +28 +28 душно 1009.0 1002.8
02 18.06 Ю 2 н/о н/о +23.9 +17.2 66 +28 +28 душно 1008.9 1002.7
03 18.06 З 2 20 км в посл. час ливневой дождь 9/4
[Cu med, cong Ac As]
+23.0 +17.9 73 +28 +34 душно 1008.5 1002.3
04 18.06 Ю 1 н/о н/о +24.3 +18.0 68 +29 +29 душно 1008.0 1001.8
05 18.06 С 1 н/о н/о +24.7 +17.9 66 +29 +29 душно 1007.5 1001.3
06 18.06 В 1 25 км в посл. час ливневой дождь 9/6
[Cu med, cong Ac As]
+25.0 +17.5 63 +29 +32 душно 1006.5 1000.4 0.5
07 18.06 ЮЗ 4 н/о н/о +25.1 +17.1 61 +29 +29 душно 1007.2 1001.1
08 18.06 ЮЗ 2 н/о н/о +24.7 +17.4 64 +29 +29 душно 1007.2 1001.0
09 18.06 ЮЗ 2 25 км 9/8
[Cu Sc Ac As Ci fib]
+24.7 +17.2 63 +29 +29 душно 1007.3 1001.1
10 18.06 ЮЗ 3 н/о н/о +24.1 +17.4 66 +28 +28 душно 1007.4 1001.2
11 18.06 ЮЗ 4 н/о н/о +22.8 +17.3 71 +28 +28 душно 1008.0 1001.8
12 18.06 ЮЗ 2 20 км в посл. час ливневой дождь 9/9
[Cu Sc]
+22.6 +17.3 72 +27 +27 душно 1008.7 1002.5 +25.7 0.5
13 18.06 штиль 0 н/о н/о +23.2 +16.7 67 +28 +28 душно 1008.8 1002.6
14 18.06 Ю 2 н/о н/о +22.8 +16.8 69 +28 +28 душно 1008.8 1002.6
15 18.06 ЮЗ 2 н/о н/о +22.5 +16.3 68 +27 +27 душно 1008.8 1002.6
16 18.06 ЮЗ 1 н/о н/о +22.1 +17.0 73 +27 +27 душно 1008.6 1002.4
17 18.06 СЗ 1 н/о н/о +22.3 +17.0 72 +27 +27 душно 1008.3 1002.1
18 18.06 СВ 1 15 км {ливн. осадки} 10/6
[Cu med, cong Ac As]
+22.3 +17.2 73 +27 +27 душно 1008.1 1001.9 0.0
19 18.06 С 1 н/о н/о +22.4 +17.1 72 +27 +27 душно 1007.9 1001.7
20 18.06 СЗ 1 н/о н/о +22.3 +17.2 73 +27 +27 душно 1007.9 1001.7
21 18.06 С 2 15 км слабый ливневой дождь 10/8
[Cu med, cong Ac As]
+22.4 +17.6 74 +27 +27 душно 1008.0 1001.8
22 18.06 С 3 н/о н/о +22.3 +17.7 75 +27 +27 душно 1008.1 1001.9
23 18.06 С 1 н/о н/о +22.4 +18.6 79 +28 +28 душно 1007.8 1001.6
00 19.06 СЗ 2 15 км слабый ливневой дождь 10/10 300 м
[Cu Sc]
+22.7 +18.3 76 +28 +28 душно 1008.3 1002.1 +22.0 0.0
01 19.06 С 1 н/о н/о +22.0 +19.4 85 +27 +27 душно 1008.2 1002.0
02 19.06 СЗ 1 н/о н/о +22.0 +19.6 86 +28 +28 душно 1008.2 1002.0
03 19.06 ЮЗ 2 3000 м слабый ливневой дождь 10/10 200 м
[Cu med, cong]
+22.3 +20.2 88 +29 +29 очень
душно
1008.1 1001.9
04 19.06 В 1 н/о н/о +22.4 +20.1 87 +29 +29 очень
душно
1007.5 1001.3
05 19.06 СЗ 1 н/о н/о +22.7 +20.1 85 +29 +29 очень
душно
1007.2 1001.0
06 19.06 Ю 2 3000 м слабый ливневой дождь 10/10 200 м
[Cu med, cong]
+23.4 +19.8 80 +30 +30 очень
душно
1007.0 1000.8 9
07 19.06 Ю 2 н/о н/о +23.4 +20.0 81 +30 +30 очень
душно
1006.8 1000.6
08 19.06 ЮЗ 2 н/о н/о +22.8 +20.0 84 +29 +29 очень
душно
1006.1 999.9
09 19.06 ЮЗ 2 8000 м в посл. час ливневой дождь 10/10 300 м
[Cu med, cong]
+22.7 +19.7 83 +29 +29 очень
душно
1006.0 999.8
10 19.06 ЮЗ 2 н/о н/о +22.6 +19.6 83 +29 +29 очень
душно
1006.2 1000.0
11 19.06 ЮВ 1 н/о н/о +21.7 +19.8 89 +27 +27 душно 1005.3 999.1
12 19.06 З 2 4000 м слабый ливневой дождь 10/10
[Cu med, cong]
+21.7 +20.2 91 +27 +27 душно 1005.2 999.0 +23.6 14
13 19.06 ЮЗ 2 н/о н/о +21.9 +20.4 91 +28 +28 душно 1005.1 998.9
14 19.06 ЮЗ 2 н/о н/о +21.6 +20.1 91 +27 +27 душно 1004.1 997.9
15 19.06 ЮЗ 2 н/о н/о +21.4 +20.2 93 +27 +27 душно 1003.0 996.8
16 19.06 ЮЗ 3 н/о н/о +21.3 +20.0 92 +26 +26 душно 1002.5 996.3
17 19.06 ЮЗ 1 н/о н/о +21.2 +20.0 93 +26 +26 душно 1001.4 995.2
18 19.06 С 4 2000 м ливневой дождь 10/10
[Cu med, cong]
+21.2 +20.2 94 +26 +26 душно 1000.7 994.5 26
19 19.06 СВ 4 н/о н/о +21.3 +20.1 93 +26 +26 душно 1001.5 995.3
20 19.06 З 1 н/о н/о +21.3 +20.1 93 +26 +26 душно 1001.1 994.9
21 19.06 Ю 2 10 км ливневой дождь 10/10 300 м
[Cu med, cong]
+21.5 +20.0 91 +27 +27 душно 1001.3 995.1
22 19.06 Ю 2 н/о н/о +21.4 +19.9 91 +26 +26 душно 1001.0 994.8
23 19.06 Ю 2 н/о н/о +21.6 +19.9 90 +27 +27 душно 1002.2 996.0
00 20.06 ЮЗ 3 20 км {ливн. осадки} 10/10 200 м
[Cu med, cong]
+21.9 +19.8 88 +28 +28 душно 1001.9 995.7 +21.1 51
01 20.06 ЮЗ 2 н/о н/о +21.8 +19.7 88 +27 +27 душно 1002.2 996.0
02 20.06 ЮЗ 2 н/о н/о +22.4 +20.1 87 +29 +29 очень
душно
1002.6 996.4
03 20.06 Ю 1 20 км в посл. час ливневой дождь 10/9 200 м
[Cu med, cong Ac As]
+23.6 +20.2 81 +29 +30 душно 1002.0 995.9
04 20.06 З 1 н/о н/о +24.2 +19.7 76 +29 +29 душно 1001.4 995.3
05 20.06 ЮЗ 3 н/о н/о +24.2 +19.9 77 +30 +30 очень
душно
1001.4 995.3
06 20.06 З 2 15 км в посл. час ливневой дождь 10/8 300 м
[Cu med, cong Ac As]
+23.4 +20.6 84 +31 +32 очень
душно
1000.6 994.5 1
07 20.06 Ю 2 н/о н/о +24.2 +19.9 77 +30 +30 очень
душно
1000.4 994.3
08 20.06 ЮЗ 3 н/о н/о +24.1 +19.8 77 +29 +29 душно 1000.4 994.3
09 20.06 ЮЗ 2 20 км 9/3 300 м
[Cu med, cong Ac As Ci sp]
+23.9 +19.6 77 +29 +30 душно 1001.0 994.9
10 20.06 ЮЗ 2 н/о н/о +23.3 +19.7 80 +30 +30 очень
душно
1001.4 995.3
11 20.06 З 1 н/о н/о +23.3 +19.9 81 +30 +30 очень
душно
1002.0 995.8
12 20.06 ЮЗ 2 8000 м {ливн. осадки} 9/4 300 м
[Frnb Ac As Ci sp]
+22.4 +19.8 85 +28 +28 душно 1002.8 996.6 +25.1 1
13 20.06 ЮЗ 2 н/о н/о +22.3 +19.7 85 +28 +28 душно 1003.9 997.7
14 20.06 СВ 2 н/о н/о +22.4 +19.8 85 +28 +28 душно 1003.7 997.5
15 20.06 С 3 н/о н/о +21.8 +18.0 79 +26 +26 душно 1003.7 997.5
16 20.06 С 2 н/о н/о +21.3 +17.5 79 +25 +25 комфорт 1004.1 997.9
17 20.06 С 3 н/о н/о +21.1 +17.7 81 +25 +25 комфорт 1004.0 997.8
18 20.06 С 2 8000 м дымка 10/3
[Cu Sc Ac trans]
+21.0 +17.2 79 +26 +26 душно 1003.7 997.5
19 20.06 С 3 н/о н/о +20.6 +17.0 80 +24 +24 комфорт 1004.3 998.1
20 20.06 С 3 н/о н/о +20.3 +16.8 80 +24 +24 комфорт 1004.6 998.4
21 20.06 С 2 8000 м дымка 10/3
[Cu Sc Ac As]
+20.4 +16.7 79 +24 +24 комфорт 1005.0 998.8
22 20.06 С 3 н/о н/о +20.7 +16.9 79 +25 +25 комфорт 1005.6 999.4
23 20.06 С 2 н/о н/о +21.2 +16.8 76 +25 +25 комфорт 1005.7 999.5
00 21.06 СЗ 1 8000 м дымка 10/3
[Cu Sc Ac As]
+22.2 +16.5 70 +26 +29 душно 1005.7 999.5 +20.2
01 21.06 Ю 3 н/о н/о +22.5 +17.9 75 +28 +28 душно 1005.9 999.7
02 21.06 ЮЗ 3 н/о н/о +23.3 +17.8 71 +29 +29 душно 1005.6 999.4
03 21.06 ЮЗ 3 8000 м мгла 9/1
[Cu hum Ac As Ci sp]
+24.5 +18.0 67 +29 +38 душно 1005.7 999.6
04 21.06 ЮЗ 3 н/о н/о +25.2 +17.2 61 +29 +29 душно 1005.2 999.1
05 21.06 ЮЗ 2 н/о н/о +26.7 +16.9 55 +30 +30 душно 1005.1 999.0
06 21.06 ЮЗ 4 15 км 6/3
[Cu med, cong Ci fib]
+27.4 +17.6 55 +32 +37 очень
душно
1005.1 999.0
07 21.06 ЮЗ 3 н/о н/о +27.3 +16.9 53 +31 +31 душно 1005.4 999.3
08 21.06 ЮЗ 4 н/о н/о +25.9 +15.9 54 +29 +29 душно 1005.8 999.7
09 21.06 ЮЗ 3 15 км 9/1
[Cu med, cong Ci sp]
+25.9 +16.5 56 +29 +30 душно 1006.4 1000.3
10 21.06 Ю 2 н/о н/о +25.4 +16.8 59 +29 +29 душно 1006.8 1000.7
11 21.06 З 2 н/о н/о +24.6 +17.1 63 +28 +28 душно 1007.5 1001.3
12 21.06 СЗ 1 15 км 4/1
[Cu hum Ci fib]
+24.2 +17.5 66 +28 +28 душно 1007.9 1001.7 +27.6
13 21.06 С 1 н/о н/о +23.3 +17.3 69 +29 +29 душно 1008.8 1002.6
14 21.06 З 2 н/о н/о +22.6 +17.7 74 +28 +28 душно 1009.1 1002.9
15 21.06 С 3 н/о н/о +21.6 +17.4 77 +26 +26 душно 1009.1 1002.9
16 21.06 С 3 н/о н/о +20.8 +16.8 78 +25 +25 комфорт 1009.5 1003.2
17 21.06 С 4 н/о н/о +20.3 +16.4 78 +23 +23 комфорт 1009.3 1003.0
18 21.06 С 6 15 км 3/0
[Ci fib]
+19.5 +15.2 76 +21 +21 комфорт 1009.2 1002.9
19 21.06 С 5 н/о н/о +19.0 +14.9 77 +20 +20 холодно 1009.5 1003.2
20 21.06 С 5 н/о н/о +18.7 +15.0 79 +19 +19 холодно 1010.2 1003.9
21 21.06 С 5 15 км 9/0
[Ci sp]
+18.6 +14.5 77 +19 +19 прохладно 1010.3 1004.0
22 21.06 С 5 н/о н/о +19.2 +13.6 70 +20 +20 очень
холодно
1010.6 1004.3
23 21.06 С 2 н/о н/о +20.9 +13.6 63 +24 +24 комфорт 1011.1 1004.8
00 22.06 С 3 20 км 9/0
[Ac trans Ci sp]
+23.0 +13.8 56 +26 +34 жарко 1010.5 1004.3 +18.5
01 22.06 С 2 н/о н/о +24.9 +14.4 52 +27 +27 жарко 1010.5 1004.3
02 22.06 З 1 н/о н/о +25.5 +15.8 55 +29 +29 душно 1010.3 1004.1
03 22.06 С 1 20 км 9/1
[Cu hum Ac As Ci fib]
+27.4 +15.1 47 +30 +44 жарко 1009.8 1003.7
04 22.06 С 2 н/о н/о +28.9 +11.0 33 +29 +29 жарко 1008.3 1002.2
05 22.06 ЮЗ 3 н/о н/о +29.6 +11.6 33 +30 +30 жарко 1008.0 1001.9
06 22.06 Ю 4 25 км 9/1
[Cu hum Ci fib]
+29.5 +14.1 39 +31 +38 жарко 1007.8 1001.7
07 22.06 Ю 4 н/о н/о +29.2 +12.6 36 +30 +30 жарко 1007.8 1001.7
08 22.06 ЮЗ 3 н/о н/о +29.1 +10.7 32 +29 +29 жарко 1007.6 1001.5
09 22.06 Ю 4 25 км 9/0
[Ac trans Ci sp]
+27.4 +15.1 47 +30 +31 жарко 1007.9 1001.8
10 22.06 Ю 4 н/о н/о +27.0 +15.1 48 +30 +30 душно 1008.5 1002.4
11 22.06 ЮЗ 2 н/о н/о +26.0 +15.7 53 +29 +29 душно 1008.5 1002.4
12 22.06 ЮВ 1 20 км 9/0
[Ci sp]
+25.8 +16.1 55 +29 +29 душно 1008.9 1002.8 +30.8
13 22.06 С 2 н/о н/о +25.1 +15.4 55 +28 +28 жарко 1009.4 1003.2
14 22.06 С 3 н/о н/о +23.9 +15.4 59 +27 +27 жарко 1008.9 1002.7
15 22.06 С 2 н/о н/о +23.5 +15.6 61 +27 +27 душно 1008.1 1001.9
16 22.06 С 3 н/о н/о +22.8 +15.4 63 +27 +27 душно 1007.5 1001.3
17 22.06 С 3 н/о н/о +22.5 +15.4 64 +26 +26 жарко 1006.7 1000.5
18 22.06 С 2 20 км 9/1
[Cu hum Ac As Ci sp]
+22.2 +15.3 65 +26 +26 душно 1007.0 1000.8
19 22.06 С 4 н/о н/о +21.7 +15.1 66 +25 +25 комфорт 1006.6 1000.4
20 22.06 С 3 н/о н/о +21.6 +15.0 66 +25 +25 комфорт 1006.6 1000.4
21 22.06 СВ 1 20 км слабый дождь 10/4
[Frnb Ac As]
+21.5 +15.1 67 +25 +25 комфорт 1005.4 999.2
22 22.06 В 1 н/о н/о +21.2 +16.0 72 +25 +25 комфорт 1005.7 999.5
23 22.06 С 3 н/о н/о +21.6 +16.4 72 +25 +25 комфорт 1005.4 999.2
00 23.06 С 2 12 км в посл. час дождь 10/0
[Ac As]
+22.4 +15.5 65 +26 +30 жарко 1005.3 999.1 +20.9 0.0
01 23.06 ЮВ 2 н/о н/о +23.3 +16.1 64 +28 +28 душно 1005.3 999.1

 

Местоположение метеостанции Hiroshima (Япония): широта 34.40 долгота 132.46 высота над уровнем моря 53 м.

В архиве по умолчанию представлена погода в Hiroshima за последнюю неделю. Архивные данные за месяц целиком и за предыдущие месяцы, начиная с января 2011 года, Вы можете получить, выбрав интересующий диапазон дат из раскрывающегося списка и нажав кнопку "Ввод!".


*Определитесь, кто Вы:
робот инопланетянин человек

Внимание! Время в таблицах - всемирное. Для получения местного времени необходимо прибавить поправку, которая в Hiroshima равна 9 ч.

Смотрите также архив погоды в соседних городах и на ближайших метеорологических станциях:

Погода в Kure (Япония) (21 км)
Погода в Hamada (Япония) (67 км)
Погода в Matsuyama (Япония) (68 км)
Погода в Fukuyama (Япония) (73 км)
Погода в Yamaguchi (Япония) (96 км)
Погода в Hagi (Япония) (97 км)
Погода в Tadotsu (Япония) (119 км)
Погода в Matsue (Япония) (129 км)
Погода в Uwajima (Япония) (130 км)
Погода в Okayama (Япония) (136 км)

Пояснения к столбцам:

Ветер - указаны скорость ветра в м/с - средняя за 10 мин, порывы в срок и между сроками (в фигурных скобках) и направление, откуда дует ветер: С - северный, СВ - северо-восточный, В - восточный, ЮВ - юго-восточный, Ю - южный, ЮЗ - юго-западный, З - западный, СЗ - северо-западный.
Видимость - горизонтальная дальность видимости в метрах или километрах. При видимости от 1 до 10 км при отсутствии осадков обычно наблюдается дымка, при ухудшении видимости до 1 км и менее - туман. В сухую погоду видимость может ухудшаться дымом, пылью или мглою.
Явления - указаны атмосферные явления, наблюдавшиеся в срок или в последний час перед сроком; фигурными скобками обозначены явления, наблюдавшиеся между сроками (за 1-3 часа до срока); квадратными скобками обозначены град или гололедные отложения с указанием их диаметра в мм.
Облачность - указаны через наклонную черту общая и нижняя облачность в баллах и высота нижней границы облаков в метрах; квадратными скобками обозначены формы облаков: Ci - перистые, Cs - перисто-слоистые, Cc - перисто-кучевые, Ac - высококучевые, As - высокослоистые, Sc - слоисто-кучевые, Ns - слоисто-дождевые, Cu - кучевые, Cb - кучево-дождевые. Подробнее классификацию облаков см. в Атласе облаков (PDF).
T - Температура воздуха - температура, измеренная на высоте 2 м над землей.
Td - Температура точки росы - температура, при понижении до которой содержащийся в воздухе водяной пар достигнет насыщения.
f - Относительная влажность воздуха - влажноcть воздуха, измеренная на высоте 2 м над землей.
Te - Эффективная температура - температура, которую ощущает одетый по сезону человек в тени. Характеристика душности погоды. При расчете учитывается влияние влажности воздуха и скорости ветра на теплоощущения человека.
Tes - Эффективная температура на солнце - температура, которую ощущает человек, с поправкой на солнечный нагрев. Характеристика знойности погоды. Зависит от высоты солнца над горизонтом, облачности и скорости ветра. Ночью, в пасмурную погоду, а также при ветре 12 м/с и более поправка равна нулю.
P - Атмосферное давление - приведенное к уровню моря атмосферное давление.
Po - Атмосферное давление - измеренное на уровне метеостанции атмосферное давление.
Tmin - Минимальная температура - минимум температуры воздуха на высоте 2 м над землей.
Tmax - Максимальная температура - максимум температуры воздуха на высоте 2 м над землей.
R - Количество осадков - Количество выпавших осадков за период времени, мм. При наведении курсора мыши на число - период времени, за который выпало указанное количество осадков.
R24 - Количество осадков - Количество выпавших осадков за 24 часа, мм.
S - Снежный покров - Высота снежного покрова, см. При наведении курсора мыши на число - состояние снежного покрова и степень покрытия местности в баллах.